TimeCDT,TemperatureF,Dew PointF,Humidity,Sea Level PressureIn,VisibilityMPH,Wind Direction,Wind SpeedMPH,Gust SpeedMPH,PrecipitationIn,Events,Conditions,WindDirDegrees,DateUTC
12:53 AM,30.0,23.0,75,30.13,10.0,NW,5.8,-,N/A,,Clear,320,2013-04-20 05:53:00
1:53 AM,28.9,23.0,78,30.13,10.0,NW,5.8,-,N/A,,Clear,320,2013-04-20 06:53:00
2:53 AM,28.9,21.9,75,30.14,10.0,NW,4.6,-,N/A,,Clear,320,2013-04-20 07:53:00
3:53 AM,28.0,21.9,78,30.15,10.0,NW,3.5,-,N/A,,Clear,320,2013-04-20 08:53:00
4:53 AM,28.0,21.0,75,30.17,10.0,NNW,5.8,-,N/A,,Clear,340,2013-04-20 09:53:00
5:53 AM,27.0,21.0,78,30.19,10.0,NW,4.6,-,N/A,,Clear,310,2013-04-20 10:53:00
6:53 AM,25.0,21.0,85,30.22,10.0,SSW,3.5,-,N/A,,Clear,210,2013-04-20 11:53:00
7:53 AM,30.0,24.1,79,30.25,10.0,Calm,Calm,-,N/A,,Clear,0,2013-04-20 12:53:00
8:53 AM,34.0,23.0,64,30.27,10.0,NNW,3.5,-,N/A,,Clear,340,2013-04-20 13:53:00
9:53 AM,36.0,25.0,64,30.29,10.0,SW,3.5,-,N/A,,Clear,220,2013-04-20 14:53:00
10:53 AM,39.0,21.0,49,30.30,10.0,Calm,Calm,-,N/A,,Partly Cloudy,0,2013-04-20 15:53:00
11:53 AM,41.0,10.9,29,30.30,10.0,South,3.5,-,N/A,,Mostly Cloudy,170,2013-04-20 16:53:00
12:53 PM,42.1,15.1,34,30.29,10.0,Calm,Calm,-,N/A,,Overcast,0,2013-04-20 17:53:00
1:53 PM,45.0,19.9,37,30.27,10.0,NE,4.6,-,N/A,,Mostly Cloudy,50,2013-04-20 18:53:00
2:53 PM,46.9,23.0,39,30.24,10.0,East,6.9,-,N/A,,Mostly Cloudy,90,2013-04-20 19:53:00
3:53 PM,46.9,19.0,33,30.23,10.0,Variable,3.5,-,N/A,,Clear,0,2013-04-20 20:53:00
4:53 PM,48.9,21.9,35,30.22,10.0,East,5.8,-,N/A,,Mostly Cloudy,100,2013-04-20 21:53:00
5:53 PM,48.9,21.0,33,30.22,10.0,SE,9.2,-,N/A,,Overcast,130,2013-04-20 22:53:00
6:53 PM,46.9,21.0,36,30.22,10.0,SE,8.1,-,N/A,,Clear,130,2013-04-20 23:53:00
7:53 PM,45.0,23.0,42,30.23,10.0,East,5.8,-,N/A,,Mostly Cloudy,100,2013-04-21 00:53:00
8:53 PM,43.0,23.0,45,30.25,10.0,ESE,4.6,-,N/A,,Partly Cloudy,110,2013-04-21 01:53:00
9:53 PM,44.1,26.1,49,30.26,10.0,ESE,8.1,-,N/A,,Overcast,120,2013-04-21 02:53:00
10:53 PM,44.1,27.0,51,30.25,10.0,ESE,8.1,-,N/A,,Overcast,120,2013-04-21 03:53:00
11:53 PM,43.0,27.0,53,30.23,10.0,ESE,9.2,-,N/A,,Mostly Cloudy,110,2013-04-21 04:53:00